Flag for United Kingdom Weather past 2 weeks in Cheltenham, England, United Kingdom

Now
70 °F

Scattered clouds.


Feels Like: 70 °F
Forecast: 54 / 66 °F
Wind: 14 mph from Southwest

Location: Staverton Private

Current Time: Aug 3, 2015 at 10:18:18 AM

Latest Report: Aug 3, 2015 at 9:50 AM


Visibility: N/A

Pressure: 29.80 "Hg

Humidity: 64%

Dew point: 57 °F

Location of CheltenhamLocation

Historic Weather in Cheltenham — Graph

°F

Cheltenham temperature yesterday

Maximum temperature yesterday: 77 °F (at 4:50 PM)
Minimum temperature yesterday: 61 °F (at 8:50 AM)
Average temperature yesterday: 71 °F

Past Weeks' High & Low Weather Summary

 TemperatureHumidityPressure
High77 °F (Aug 2, 4:50 PM)100% (Jul 24, 4:20 PM)30.12 "Hg (Jul 24, 4:20 PM)
Low52 °F (Jul 29, 6:50 AM)33% (Jul 19, 4:20 PM)29.39 "Hg (Jul 26, 5:50 PM)
Average64 °F67%29.86 "Hg
* Reported Jul 19 9:20 AM — Aug 3 9:20 AM, Cheltenham, Weather by CustomWeather, © 2015

Note: Actual official high and low records may vary slightly from our data, if they occured in-between our weather recording intervals... More about our weather records

Advertising

Cheltenham weather history for previous 24 hours

 ConditionsComfort  
Time TempWeatherWind HumidityBarometerVisibility
9:20 AM
Mon, Aug 3
70 °FScattered clouds.13 mph69%29.80 "HgN/A
8:50 AM68 °FScattered clouds.13 mph73%29.77 "HgN/A
8:20 AM66 °FScattered clouds.13 mph83%29.77 "HgN/A
7:50 AM66 °FScattered clouds.13 mph83%29.77 "HgN/A
7:20 AM64 °FScattered clouds.9 mph88%29.77 "HgN/A
6:50 AM64 °FScattered clouds.10 mph83%29.74 "HgN/A
6:50 PM
Sun, Aug 2
75 °FSunny.13 mph41%29.86 "Hg10 mi
5:50 PM77 °FPassing clouds.14 mph39%29.89 "HgN/A
5:20 PM77 °FPassing clouds.12 mph39%29.89 "HgN/A
4:50 PM77 °FPassing clouds.13 mph39%29.89 "HgN/A
4:20 PM73 °FPassing clouds.9 mph44%29.92 "HgN/A
3:50 PM75 °FPassing clouds.12 mph44%29.92 "HgN/A
3:20 PM75 °FPassing clouds.14 mph41%29.92 "HgN/A
2:50 PM75 °FPassing clouds.12 mph41%29.95 "HgN/A
2:20 PM75 °FPassing clouds.12 mph44%29.95 "HgN/A
1:50 PM72 °FPassing clouds.9 mph53%29.98 "HgN/A
1:20 PM72 °FPassing clouds.12 mph50%30.01 "HgN/A
12:50 PM70 °FPassing clouds.10 mph53%30.01 "HgN/A
12:20 PM70 °FPassing clouds.9 mph57%30.01 "HgN/A
11:50 AM70 °FPassing clouds.10 mph57%30.04 "HgN/A
11:20 AM68 °FPassing clouds.10 mph60%30.04 "HgN/A
10:50 AM66 °FPassing clouds.10 mph64%30.04 "HgN/A
10:20 AM64 °FPassing clouds.6 mph68%30.04 "HgN/A
Weather by CustomWeather, © 2015

See weather overviewHow to use our weather pages